TimeEST,TemperatureF,Dew PointF,Humidity,Sea Level PressureIn,VisibilityMPH,Wind Direction,Wind SpeedMPH,Gust SpeedMPH,PrecipitationIn,Events,Conditions,WindDirDegrees,DateUTC
8:35 AM,28.4,24.8,86,30.25,10.0,Calm,Calm,-,N/A,,Clear,0,2012-12-06 13:35:00
8:55 AM,30.2,26.6,86,30.24,10.0,Calm,Calm,-,N/A,,Clear,0,2012-12-06 13:55:00
9:15 AM,32.0,26.6,80,30.24,10.0,East,3.5,-,N/A,,Clear,80,2012-12-06 14:15:00
9:35 AM,33.8,26.6,75,30.24,10.0,East,3.5,-,N/A,,Clear,80,2012-12-06 14:35:00
9:55 AM,35.6,26.6,70,30.23,10.0,East,4.6,-,N/A,,Clear,90,2012-12-06 14:55:00
10:15 AM,35.6,28.4,75,30.23,10.0,East,3.5,-,N/A,,Clear,80,2012-12-06 15:15:00
10:35 AM,37.4,28.4,70,30.23,10.0,ESE,3.5,-,N/A,,Clear,110,2012-12-06 15:35:00
10:55 AM,41.0,28.4,61,30.21,10.0,East,3.5,-,N/A,,Clear,80,2012-12-06 15:55:00
11:15 AM,41.0,30.2,65,30.20,10.0,East,3.5,-,N/A,,Clear,90,2012-12-06 16:15:00
11:35 AM,41.0,30.2,65,30.20,10.0,East,4.6,-,N/A,,Clear,90,2012-12-06 16:35:00
11:55 AM,42.8,32.0,66,30.18,10.0,ENE,3.5,-,N/A,,Clear,70,2012-12-06 16:55:00
12:15 PM,44.6,32.0,61,30.16,10.0,ENE,3.5,-,N/A,,Clear,70,2012-12-06 17:15:00
12:55 PM,46.4,32.0,57,30.14,10.0,East,5.8,-,N/A,,Clear,100,2012-12-06 17:55:00
1:15 PM,46.4,32.0,57,30.12,10.0,Calm,Calm,-,N/A,,Clear,0,2012-12-06 18:15:00
1:35 PM,46.4,32.0,57,30.12,10.0,Calm,Calm,-,N/A,,Clear,0,2012-12-06 18:35:00
1:55 PM,48.2,32.0,54,30.11,10.0,Calm,Calm,-,N/A,,Clear,0,2012-12-06 18:55:00
2:15 PM,50.0,32.0,50,30.10,10.0,Calm,Calm,-,N/A,,Clear,0,2012-12-06 19:15:00
2:35 PM,50.0,32.0,50,30.10,10.0,Calm,Calm,-,N/A,,Clear,0,2012-12-06 19:35:00
2:55 PM,50.0,32.0,50,30.10,10.0,Calm,Calm,-,N/A,,Scattered Clouds,0,2012-12-06 19:55:00
3:15 PM,50.0,32.0,50,30.10,10.0,Calm,Calm,-,N/A,,Mostly Cloudy,0,2012-12-06 20:15:00
3:35 PM,50.0,32.0,50,30.09,10.0,Calm,Calm,-,N/A,,Mostly Cloudy,0,2012-12-06 20:35:00
3:55 PM,50.0,32.0,50,30.09,10.0,Calm,Calm,-,N/A,,Scattered Clouds,0,2012-12-06 20:55:00
4:15 PM,50.0,32.0,50,30.09,10.0,Calm,Calm,-,N/A,,Clear,0,2012-12-06 21:15:00
4:35 PM,46.4,33.8,62,30.09,10.0,Calm,Calm,-,N/A,,Clear,0,2012-12-06 21:35:00
4:55 PM,44.6,33.8,66,30.09,10.0,Calm,Calm,-,N/A,,Clear,0,2012-12-06 21:55:00
5:15 PM,44.6,33.8,66,30.09,10.0,Calm,Calm,-,N/A,,Clear,0,2012-12-06 22:15:00
5:35 PM,42.8,33.8,70,30.09,10.0,Calm,Calm,-,N/A,,Clear,0,2012-12-06 22:35:00
5:55 PM,41.0,33.8,76,30.09,10.0,Calm,Calm,-,N/A,,Clear,0,2012-12-06 22:55:00
6:15 PM,41.0,33.8,76,30.08,10.0,Calm,Calm,-,N/A,,Mostly Cloudy,0,2012-12-06 23:15:00
6:35 PM,41.0,33.8,76,30.08,10.0,Calm,Calm,-,N/A,,Mostly Cloudy,0,2012-12-06 23:35:00
6:55 PM,42.8,33.8,70,30.08,10.0,Calm,Calm,-,N/A,,Overcast,0,2012-12-06 23:55:00
7:15 PM,42.8,33.8,70,30.08,10.0,Calm,Calm,-,N/A,,Overcast,0,2012-12-07 00:15:00
7:35 PM,42.8,35.6,76,30.08,10.0,Calm,Calm,-,N/A,,Overcast,0,2012-12-07 00:35:00
7:55 PM,44.6,35.6,71,30.08,10.0,Calm,Calm,-,N/A,,Overcast,0,2012-12-07 00:55:00
8:15 PM,44.6,35.6,71,30.08,10.0,Calm,Calm,-,N/A,,Overcast,0,2012-12-07 01:15:00
8:35 PM,44.6,35.6,71,30.08,10.0,Calm,Calm,-,N/A,,Overcast,0,2012-12-07 01:35:00
8:55 PM,44.6,35.6,71,30.07,10.0,Calm,Calm,-,N/A,,Overcast,0,2012-12-07 01:55:00
9:35 PM,42.8,39.2,87,30.06,10.0,Calm,Calm,-,N/A,,Overcast,0,2012-12-07 02:35:00
9:55 PM,42.8,41.0,93,30.06,10.0,Calm,Calm,-,N/A,,Overcast,0,2012-12-07 02:55:00
10:15 PM,42.8,41.0,93,30.06,3.0,Calm,Calm,-,N/A,Rain,Rain,0,2012-12-07 03:15:00
10:35 PM,42.8,41.0,93,30.05,10.0,Calm,Calm,-,N/A,,Overcast,0,2012-12-07 03:35:00
10:55 PM,42.8,42.8,100,30.05,10.0,Calm,Calm,-,N/A,,Overcast,0,2012-12-07 03:55:00
11:15 PM,42.8,42.8,100,30.04,7.0,Calm,Calm,-,N/A,,Overcast,0,2012-12-07 04:15:00
11:55 PM,44.6,42.8,93,30.04,7.0,Calm,Calm,-,N/A,,Overcast,0,2012-12-07 04:55:00